Showing default

KUIPER-00262, 67788

Orbit data source: Space-Track

KUIPER-00262, 67788 is a payload satellite owned by Kuiper Systems (US) in LEO that was launched on Thu, 12 Feb 2026 UTC via an ARIANE 64 launch vehicle from the French Guiana (FRGUI). Payload-class satellites include a variety of spacecraft equipped with specific instruments for various scientific and technological missions. These include communications satellites like Starlink; space stations such as the ISS; scientific satellites like the Hubble; Earth observation satellites from companies like Planet Labs, Umbra, and HawkEye 360; GPS; miniature CubeSats for education and research; and military/defense satellites.

Loading next visibility...
Identifier
67788, 2026-030AA
Orbit
LEO
Country
Flag of USUS
Related business
Manufacturer
Kuiper Systems
Mission
Operational Commercial Communications
Bus & Motor
KUIPER, Unknown motor
Mass
~490 kg wet, ~490 kg dry
Launch date (UTC)
2026-02-12 (4 months ago)
Launch vehicle
ARIANE 64
Launch site
French Guiana (FRGUI)
Object type
Payload
Rocket body
Debris
Shape & HBR
Box + 2 Pan, 3.4 m
Radar Cross Section
2.326 m², Large (>1 m²)

Expand to show TLE details & history
Last TLE update: 12 hours ago

TLE from 12 hours ago
0 KUIPER-00262
1 67788U 26030AA  26171.34955634  .00002748  00000-0  39025-3 0  9996
2 67788  51.9002 101.6628 0001025 117.4164 242.6902 14.79830130 20622
Epoch: 2026-06-20T08:23Z
TLE epoch observation values (Epoch: 2026-06-20T08:23:21.667Z)
Latitude
-0.00008°
Longitude
67.257°
Altitude
630.937 km
Speed
7.544 km/s
True Right ascension
06h 46m 39s
True Declination
0° 00' 00"
Sunlit
Object was in daylight at epoch
Visualization orbit readout
Latitude
Unknown
Longitude
Unknown
Altitude
Unknown
Speed
Unknown
Apparent Right ascension
Unknown
Apparent Declination
Unknown
Sunlit
N/A
Visualization observer readout
Local Sidereal Time
07:15:36
Azimuth
Unknown
Elevation
Unknown
Doppler factor
Unknown
Orbital elements
Apogee altitude
631.03 km
Perigee altitude
629.593 km
Semi-major axis
7,008.448 km
Eccentricity
0.0001
Inclination
51.9002°
RAAN
101.6628°
Arg. of periapsis
117.4164°
True anomaly
242.67976°
Mean anomaly
242.6902°
Eccentric anomaly
242.68498°
Mean motion
3.69922 °/min
Orbital period
97.32 mins
BSTAR
0.00039025
Loading maneuver chart data...
Computing Atmospheric mass density...
Loading historical data...
Loading historical data...
Loading historical data...
Loading historical data...
Loading historical data...
Loading historical data...
Loading historical data...

Documentation

Showing up to 5 results
|